User: anonymous   Login
Location: Unspecified
(0.0000°N, 0.0000°E)
Time: 12:35:12
(UTC+00:00)
Language:

COSMOS 2401 - Orbit

View from above orbital plane
View from above orbital plane
View from above satellite
View from above satellite

Ground track
Ground track

The orbit data is extracted from the following two-line orbital elements,

1 27869U 03037B   18172.19323999  .00000019  00000-0  66681-4 0  9990
2 27869  82.4686 357.0298 0022323 321.9492  38.0014 12.45453819674661
Epoch (UTC): 21 June 2018 04:38:15
Eccentricity: 0.0022323
inclination: 82.4686°
perigee height: 1466 km
apogee height: 1501 km
right ascension of ascending node: 357.0298°
argument of perigee: 321.9492°
revolutions per day: 12.45453819
mean anomaly at epoch: 38.0014°
orbit number at epoch: 67466

The dashed part of the orbit path shows where the satellite is in the earth's shadow,  

DLR